TimeEST,TemperatureF,Dew PointF,Humidity,Sea Level PressureIn,VisibilityMPH,Wind Direction,Wind SpeedMPH,Gust SpeedMPH,PrecipitationIn,Events,Conditions,WindDirDegrees,DateUTC
12:53 AM,32.0,23.0,69,30.44,10.0,SSW,3.5,-,N/A,,Mostly Cloudy,210,2011-12-13 05:53:00
1:53 AM,34.0,24.1,67,30.43,10.0,SSW,3.5,-,N/A,,Mostly Cloudy,200,2011-12-13 06:53:00
2:53 AM,34.0,24.1,67,30.43,10.0,SSW,4.6,-,N/A,,Overcast,210,2011-12-13 07:53:00
3:53 AM,33.1,24.1,70,30.43,10.0,Calm,Calm,-,N/A,,Mostly Cloudy,0,2011-12-13 08:53:00
4:53 AM,33.1,23.0,66,30.43,10.0,SSW,5.8,-,N/A,,Mostly Cloudy,210,2011-12-13 09:53:00
5:53 AM,33.8,23.0,65,30.41,10.0,SSW,4.6,-,N/A,,Overcast,200,2011-12-13 10:53:00
6:53 AM,33.1,23.0,66,30.44,10.0,SSW,3.5,-,N/A,,Mostly Cloudy,210,2011-12-13 11:53:00
7:53 AM,34.0,24.1,67,30.45,10.0,SSW,4.6,-,N/A,,Overcast,210,2011-12-13 12:53:00
8:53 AM,34.0,26.1,73,30.45,9.0,South,3.5,-,N/A,,Overcast,180,2011-12-13 13:53:00
9:53 AM,37.0,25.0,62,30.44,10.0,South,4.6,-,N/A,,Overcast,190,2011-12-13 14:53:00
10:53 AM,39.9,25.0,55,30.45,10.0,Calm,Calm,-,N/A,,Overcast,0,2011-12-13 15:53:00
11:53 AM,42.1,25.0,51,30.43,10.0,Variable,3.5,-,N/A,,Overcast,0,2011-12-13 16:53:00
12:53 PM,43.0,24.1,47,30.41,10.0,SSW,5.8,-,N/A,,Overcast,210,2011-12-13 17:53:00
1:53 PM,44.1,24.1,45,30.40,10.0,SSW,6.9,-,N/A,,Overcast,210,2011-12-13 18:53:00
2:53 PM,44.1,24.1,45,30.39,10.0,SSW,4.6,-,N/A,,Overcast,210,2011-12-13 19:53:00
3:53 PM,43.0,26.1,51,30.39,10.0,SW,4.6,-,N/A,,Overcast,220,2011-12-13 20:53:00
4:53 PM,43.0,27.0,53,30.40,10.0,SSW,5.8,-,N/A,,Overcast,210,2011-12-13 21:53:00
5:53 PM,41.0,28.0,60,30.38,10.0,South,4.6,-,N/A,,Overcast,170,2011-12-13 22:53:00
6:53 PM,41.0,28.9,62,30.38,10.0,South,4.6,-,N/A,,Overcast,180,2011-12-13 23:53:00
7:53 PM,39.9,30.0,68,30.38,10.0,South,6.9,-,N/A,,Overcast,180,2011-12-14 00:53:00
8:53 PM,39.9,30.9,70,30.38,9.0,South,6.9,-,N/A,,Overcast,190,2011-12-14 01:53:00
9:53 PM,39.9,30.9,70,30.36,9.0,SSW,6.9,-,N/A,,Overcast,200,2011-12-14 02:53:00
10:53 PM,39.0,32.0,76,30.36,8.0,South,5.8,-,N/A,,Overcast,190,2011-12-14 03:53:00
11:53 PM,37.9,30.9,76,30.34,7.0,South,4.6,-,N/A,,Overcast,180,2011-12-14 04:53:00